[Iaude] MPEC E54: 2019 EE1 [a=0.94,e=0.09,i=17.4,H=26.1]

mpec at mpcdb1.cfa.harvard.edu mpec at mpcdb1.cfa.harvard.edu
Wed Mar 6 10:49:17 EST 2019


M.P.E.C. 2019-E54                                Issued 2019 Mar. 6, 15:45 UT
 
     The Minor Planet Electronic Circulars contain information on unusual
         minor planets and routine data on comets.  They are published
    on behalf of Division F of the International Astronomical Union by the
          Minor Planet Center, Smithsonian Astrophysical Observatory,
                          Cambridge, MA 02138, U.S.A.

             Prepared using the Tamkin Foundation Computer Network

                              MPC at CFA.HARVARD.EDU
            URL https://www.minorplanetcenter.net/    ISSN 1523-6714


                                   2019 EE1
 
Observations:
     K19E01E* C2019 03 05.39906 13 23 56.22 +28 52 10.2          20.5 GVEE054G96
     K19E01E  C2019 03 05.40424 13 23 51.17 +28 51 25.0          21.5 GVEE054G96
     K19E01E  C2019 03 05.40939 13 23 46.08 +28 50 37.5          20.8 GVEE054G96
     K19E01E  C2019 03 05.41454 13 23 40.98 +28 49 51.3          21.4 GVEE054G96
     K19E01E  C2019 03 05.47572 13 22 40.38 +28 40 24.2          20.7 GVEE054I52
     K19E01E  C2019 03 05.47864 13 22 37.42 +28 39 56.4          21.0 GVEE054I52
     K19E01E  C2019 03 05.48157 13 22 34.59 +28 39 29.3          20.4 GVEE054I52
     K19E01E pC2019 03 06.00446913 14 25.99 +27 14 10.8          21.0 GVEE054L01
     K19E01E KC2019 03 06.00769113 14 22.65 +27 13 38.8          21.2 GVEE054L01
     K19E01E KC2019 03 06.01065913 14 19.58 +27 13 07.8          21.0 GVEE054L01
     K19E01E  C2019 03 06.19415113 11 26.90 +26 41 10.5          20.5 GVEE054H01
     K19E01E  C2019 03 06.20890113 11 11.88 +26 38 40.1          20.9 GVEE054H01
     K19E01E  C2019 03 06.21348013 11 07.15 +26 37 53.4          20.5 GVEE054H01
     K19E01E  C2019 03 06.22056013 10 59.87 +26 36 40.9          20.5 GVEE054H01
     K19E01E  C2019 03 06.34735 13 08 46.68 +26 14 33.9                VEE054G96
     K19E01E  C2019 03 06.35247 13 08 41.13 +26 13 38.2          20.6 GVEE054G96
     K19E01E  C2019 03 06.36272 13 08 30.09 +26 11 48.0          20.2 GVEE054G96
     K19E01E KC2019 03 06.37914813 08 07.91 +26 08 25.6          20.7 VuEE054H21
     K19E01E KC2019 03 06.38665913 07 59.80 +26 07 02.4          20.8 VuEE054H21
     K19E01E KC2019 03 06.39341613 07 52.55 +26 05 47.1          20.9 VuEE054H21
 
Observer details:
G96 Mt. Lemmon Survey.  Observers E. J. Christensen, T. A. Pruyne.  Measurers
    B. M. Africano, E. J. Christensen, G. A. Farneth, D. C. Fuls, A. R. Gibbs,
    A. D. Grauer, H. Groeller, R. A. Kowalski, S. M. Larson, G. J. Leonard,
    T. A. Pruyne, R. L. Seaman, F. C. Shelly.  1.5-m reflector + 10K CCD.
H01 Magdalena Ridge Observatory, Socorro.  Observers W. H. Ryan, E. V. Ryan.
    Measurer W. H. Ryan.  2.4-m f/8.9 Ritchey-Chretien + CCD.
H21 Astronomical Research Observatory, Westfield.  Observer R. Holmes.
    Measurers S. Foglia, L. Buzzi, T. Linder, R. Holmes.  0.76-m f/3.0
    astrograph + CCD.
I52 Steward Observatory, Mt. Lemmon Station.  Observers D. C. Fuls,
    T. A. Pruyne.  Measurers B. M. Africano, E. J. Christensen, G. A. Farneth,
    D. C. Fuls, A. R. Gibbs, A. D. Grauer, H. Groeller, R. A. Kowalski,
    S. M. Larson, G. J. Leonard, T. A. Pruyne, R. L. Seaman, F. C. Shelly.
    1.0-m reflector + CCD.
L01 Visnjan Observatory, Tican.  Observers K. Korlevic, F. Valentine.
    Measurer K. Korlevic.  1.0-m f/2.9 reflector + CCD.
 
Orbital elements:
2019 EE1                                                 Earth MOID = 0.0368 AU
Epoch 2019 Apr. 27.0 TT = JDT 2458600.5                 MPC
M 239.91541              (2000.0)            P               Q
n   1.07450811     Peri.  351.84061     +0.95250215     +0.30024548
a   0.9440527      Node   350.22197     -0.25973684     +0.71367545
e   0.0921641      Incl.   17.44527     -0.15898559     +0.63286650
P   0.92           H   26.1           G   0.15           U   6
Residuals in seconds of arc
190305 G96  0.7-  1.2-    190306 L01  0.1+  0.1-    190306 G96  0.2+  0.3+
190305 G96  0.2+  0.6+    190306 L01  0.1-  0.4+    190306 G96  0.2-  0.3-
190305 G96  0.2+  0.1-    190306 L01  0.1-  0.6-    190306 G96  0.3+  0.1+
190305 G96  0.2+  0.6+    190306 H01  0.1+  0.1+    190306 H21  0.0   0.0
190305 I52  0.3+  0.1+    190306 H01  0.3+  0.0     190306 H21  0.3-  0.0
190305 I52  0.6-  0.2-    190306 H01  0.2-  0.1+    190306 H21  0.1+  0.2-
190305 I52  0.3+  0.3+    190306 H01  0.3-  0.1+

Ephemeris:
2019 EE1                 a,e,i = 0.94, 0.09, 17                  q = 0.8570
Date    TT    R. A. (2000) Decl.     Delta      r     Elong.  Phase     V
2019 02 04    15 39 18.6 +44 27 31   0.1850  1.0220    96.1    73.6    25.1
...
2019 02 19    15 14 17.0 +42 00 17   0.1158  1.0292   107.6    66.3    23.8
...
2019 02 27    14 34 07.6 +38 15 04   0.07793 1.0308   119.5    56.7    22.7
...
2019 03 05    13 29 54.2 +29 50 39   0.05216 1.0309   137.8    40.3    21.3
2019 03 06    13 14 27.8 +27 16 04   0.04851 1.0308   142.4    35.9    21.1
2019 03 07    12 57 25.1 +24 09 20   0.04519 1.0307   147.8    30.9    20.8
...
2019 03 13    10 48 55.9 -06 05 52   0.03685 1.0296   166.1    13.4    19.8
...
2019 03 21    08 25 48.4 -34 18 16   0.05966 1.0266   119.5    57.6    22.1
...
2019 04 05    06 53 10.2 -43 09 04   0.1277  1.0167    93.8    79.0    24.4

A. U. Tomatic                (C) Copyright 2019 MPC           M.P.E.C. 2019-E54



More information about the Iaude mailing list